map of TLN home
TLN - Airport
Location
City:  Hyeres, Provence-Alpes-Côte d'Azur, France
Name:Le Palyvestre
ICAO:LFTH
IATA:TLN

Details
Type:Airport (Aerodrome, Airfield)
Use:Military
Latitude:43°05'50"N (43.097344)
Longitude:6°08'46"E (6.146031)
Elevation:7 ft (2 m)
Variation:1.78°E (WMM2015 magnetic declination)
0.11° annual change
Runways:2
Longest:6955 × 148 ft (2120 × 45 m)

Time
Time Zone:UTC+1 (DST+2)
Local Time:

Weather
METAR:LFTH 201830Z AUTO 27023G39KT 9999 BKN020 OVC036 13/09 Q1010 NOSIG
TAF:LFTH 201400Z 2015/2115 28015G25KT CAVOK
BECMG 2016/2018 30025G35KT
BECMG 2100/2102 30025G45KT
TEMPO 2102/2108 30045G60KT
BECMG 2110/2112 30020G35KT

Related Locations
Nearby:
Farthest:CHT: 12299 mi / 19794 km
Waitangi [Tuuta], CIT, NZ

Find:

   beyond  
but within

Other Information
Maps:
NOTAMs:
Links:
Sources:

  
flag of France
flag of Provence-Alpes-Côte d'Azur
  

Sectional Chart

Flight Planning
at skyvector.com

Satellite Image

Google Maps Satellite view

 

Copyright © 2004-2018 Karl L. Swartz. All rights reserved.
The Great Circle Mapper name and logo are trademarks of the Great Circle Mapper.
All other trademarks mentioned herein belong to their respective owners.
Please see credits for attibutions and further copyright information.

  Follow gcmap on Facebook Follow gcmap on Twitter Follow gcmap on Google+ GCmap on LinkedIn

hCard Microformat

Geo Microformat